Regional Weather Roundup
Issued by NWS

Home | Current Version | Previous Version | Graphics & Text | Print | Product List | Glossary On
Versions: 1 2 3 4 5 6 7 8 9 10 11 12 13 14 15 16 17 18 19 20 21 22 23 24 25 26 27 28 29 30 31 32 33 34 35 36 37 38 39 40 41 42 43 44 45 46 47 48 49 50
000
ASUS43 KFSD 052310
RWRSD

WEATHER ROUNDUP FOR SOUTH DAKOTA
NATIONAL WEATHER SERVICE SIOUX FALLS SD
500 PM CST THU MAR 05 2015

NOTE: "FAIR" INDICATES FEW OR NO CLOUDS BELOW 12,000 FEET WITH NO
SIGNIFICANT WEATHER AND/OR OBSTRUCTIONS TO VISIBILITY.


SDZ001>005-009-010-012>017-060000-
NORTHWEST AND NORTH CENTRAL SOUTH DAKOTA

CITY           SKY/WX    TMP DP  RH WIND       PRES   REMARKS
BUFFALO          N/A     45  11  25 NW24G32   30.00S
FAITH            N/A     45  10  24 NW23G31   30.06R
MOBRIDGE       SUNNY     38  12  34 S15       30.05F
$$

SDZ012>016-024>037-041>051-057-063-072>074-060000-
SOUTHWEST AND SOUTH CENTRAL SOUTH DAKOTA

CITY           SKY/WX    TMP DP  RH WIND       PRES   REMARKS
RAPID CTY ARPT SUNNY     46  16  30 N21       30.09R
PIERRE         SUNNY     35  17  47 S7        30.12F WCI  29
CUSTER         SUNNY     37  12  35 W12G23    30.08R
ELLSWORTH AFB  SUNNY     45  18  34 N20G28    30.08R
PHILIP         PTSUNNY   46  19  34 W16G22    30.08F
PINE RIDGE     SUNNY     41  20  43 W16G25    30.12F
SPEARFISH      FAIR      39  16  38 NW18G28   30.11R
WINNER         MOCLDY    44  10  25 W9        30.13F
$$

SDZ004>011-016>023-039-040-060000-
NORTHEAST SOUTH DAKOTA

CITY           SKY/WX    TMP DP  RH WIND       PRES   REMARKS
ABERDEEN       SUNNY     28  13  53 S16       30.18F WCI  16
WATERTOWN      SUNNY     23  10  57 S12       30.20F WCI  12
SISSETON         N/A     23  11  60 S12       30.22F WCI  12
$$

SDZ017-020-022-023-036>040-048>070-060000-
SOUTHEAST SOUTH DAKOTA

CITY           SKY/WX    TMP DP  RH WIND       PRES   REMARKS
SIOUX FALLS    MOSUNNY   28   6  39 S10       30.27F WCI  19
HURON          SUNNY     34   9  35 S13       30.19F WCI  25
CHAMBERLAIN    PTSUNNY   38  13  34 S8        30.15F
MITCHELL       SUNNY     37   4  25 S13       30.22F
YANKTON        SUNNY     36   3  25 S15       30.28F
$$

ABBREVIATIONS USED IN REMARKS
   TC - TEMPERATURE IN CELSIUS
  WCI - WIND CHILL INDEX
   HX - HEAT INDEX
  VSB - VISIBILITY




USA.gov is the U.S. government's official web portal to all federal, state and local government web resources and services.